Tracking 35331 objects as of 15-Sep-2026
HD Live streaming from Space Station
objects crossing your sky now

FLOCK 4V 18


FLOCK 4V 18 is no longer on orbit
FLOCK 4V 18 is classified as:


NORAD ID: 46597
Int'l Code: 2020-061BG
Launch date: September 3, 2020
Source: United States (US)
Launch site: FRENCH GUIANA (FRGUI)
Decay date: 2024-03-28
Your satellite tracking list
Your tracking list is empty




NASA's NSSDC Master Catalog

Two Line Element Set (TLE):
1 46597U 20061BG  24080.18192331  .15145349  25244-5  71950-3 0  9991
2 46597  97.3231 165.4815 0013066 251.4128 108.5754 16.41754517192550
Source of the keplerian elements: AFSPC